User: anonymous   Login
Location: B�di�
(14.6834°N, 3.1047°W)
Time: 12:46:49
(UTC+00:00)
Language:

SWIFT - Orbit

View from above orbital plane
View from above orbital plane
View from above satellite
View from above satellite

Ground track
Ground track

The orbit data is extracted from the following two-line orbital elements,

1 28485U 04047A   20098.82429016  .00000840  00000-0  26910-4 0  9997
2 28485  20.5560 159.3072 0010845 243.4356 116.4967 15.04580449842849
Epoch (UTC): 07 April 2020 19:46:58
Eccentricity: 0.0010845
inclination: 20.5560°
perigee height: 545 km
apogee height: 560 km
right ascension of ascending node: 159.3072°
argument of perigee: 243.4356°
revolutions per day: 15.04580449
mean anomaly at epoch: 116.4967°
orbit number at epoch: 84284

The dashed part of the orbit path shows where the satellite is in the earth's shadow,  

DLR